Location: Unspecified
(38.6830°S, 0.0000°E)
Time: 03:25:08
(UTC+00:00)

Envisat - Pass Details

Date: 29 May 2019
Orbit: 764 x 766 km, 98.1° (Epoch: 19 June)

Event Time Altitude Azimuth Distance (km) Brightness Sun altitude
Rises 05:41:32 0° 39° (NE) 3,226 7.1 -16.3°
Reaches altitude 10° 05:44:00 10° 48° (NE) 2,308 6.5 -15.8°
Maximum altitude 05:48:32 34° 111° (ESE) 1,267 4.7 -14.9°
Drops below altitude 10° 05:53:07 10° 174° (S) 2,336 5.4 -14.1°
Sets 05:55:38 0° 182° (S) 3,270 6.1 -13.6°
